BREEZE-M DEB (TANK), 40366

Orbit data source: Space-Track

BREEZE-M DEB (TANK), 40366 is space debris in HEO originally from a launch on Sat, 27 Dec 2014 UTC launched from the Tyuratam Missile And Space Complex (TTMTR). Debris objects in space refer to the collection of defunct objects orbiting the Earth. Examples of debris include non-operational satellites, rocket bodies, and fragments generated from explosions, collisions, or faulty payload assembly.

Loading next visibility...
Identifier
40366, 2014-089C
Orbit
HEO
Country
Flag of CISCIS
Related business
Manufacturer
Khrunichev
Mission
Spacecraft
Bus & Motor
BRIZ TANK, Unknown motor
Mass
~1,000 kg wet, 1,000 kg dry
Launch date (UTC)
2014-12-27 (11 years ago)
Launch vehicle
Unknown
Launch site
Tyuratam Missile And Space Complex (TTMTR)
Object type
Payload
Rocket body
Debris
Shape & HBR
Torus, 2.0 m
Radar Cross Section
8.218 m², Large (>1 m²)

Expand to show TLE details & history
Last TLE update: 13 hours ago

TLE from 13 hours ago
0 BREEZE-M DEB (TANK)
1 40366U 14089C   25259.29633745  .00004825  00000-0  88877-3 0  9993
2 40366  49.5090 256.6715 5158587  71.8762 336.2351  5.35226571205028
Epoch: 2025-09-16T07:06Z
TLE epoch observation values (Epoch: 2025-09-16T07:06:43.555Z)
Latitude
-0.00004°
Longitude
154.49973°
Altitude
2,343.764 km
Speed
7.908 km/s
True Right ascension
17h 06m 40s
True Declination
0° 00' 00"
Sunlit
Object was in daylight at epoch
Visualization orbit readout
Latitude
Unknown
Longitude
Unknown
Altitude
Unknown
Speed
Unknown
Apparent Right ascension
Unknown
Apparent Declination
Unknown
Sunlit
N/A
Visualization observer readout
Local Sidereal Time
12:50:55
Azimuth
Unknown
Elevation
Unknown
Doppler factor
Unknown
Orbital elements
Apogee altitude
14,549.661 km
Perigee altitude
305.871 km
Semi-major axis
13,805.903 km
Eccentricity
0.51586
Inclination
49.509°
RAAN
256.6715°
Arg. of periapsis
71.8762°
True anomaly
288.23775°
Mean anomaly
336.2351°
Eccentric anomaly
315.52952°
Mean motion
1.33797 °/min
Orbital period
269.06 mins
BSTAR
0.00088877
Loading maneuver chart data...
Computing Atmospheric mass density...
Loading historical data...
Loading historical data...
Loading historical data...
Loading historical data...
Loading historical data...
Loading historical data...
Loading historical data...
Other satellites on launch #89 in the year 2014 (2014-12-27 UTC)

Documentation

Showing up to 5 results
|